Storm Events Database

Event Details

Event Tornado
-- Scale EF0
-- Length 7.47 Miles
-- Width 250 Yards
State ALABAMA
County/Area BIBB
WFO BMX
Report Source NWS Storm Survey
NCDC Data Source CSV
Begin Date 2007-02-13 17:48:00.0 CST-6
Begin Location 5W SIX MILE
Begin Lat/Lon 33.02/-87.08
End Date 2007-02-13 18:01:00.0 CST-6
End Location 1WSW ASHBY
End Lat/Lon 33.0131/-86.9498
Deaths Direct/Indirect 0/0 (fatality details below, when available...)
Injuries Direct/Indirect 0/0
Property Damage 10.00K
Crop Damage 0.00K
Episode Narrative An intense winter storm and passing cold front caused several tornadoes and numerous severe thunderstorms across Central Alabama.
Event Narrative The tornado touched down just west of County Road 26, north of State Highway 25, and continued across the Six Mile Community, before eventually lifting just west of Ashby. This tornado did not cause widespread damage along the whole path, but there was evidence of sporadic building and tree damage along the entire path.


     ‚Äč



All events for this episode:

Location County/Zone St. Date Time T.Z. Type Mag Dth Inj PrD CrD
Totals: 0 0 207.00K 0.00K
GAINESVILLE SUMTER CO. AL 02/13/2007 15:58 CST-6 Hail 0.75 in. 0 0 0.00K 0.00K
BOLIGEE GREENE CO. AL 02/13/2007 16:23 CST-6 Hail 0.75 in. 0 0 0.00K 0.00K
FOSTERS TUSCALOOSA CO. AL 02/13/2007 16:45 CST-6 Hail 1.75 in. 0 0 0.00K 0.00K
TUSCALOOSA TUSCALOOSA CO. AL 02/13/2007 16:45 CST-6 Hail 0.75 in. 0 0 0.00K 0.00K
STERLING TUSCALOOSA CO. AL 02/13/2007 16:48 CST-6 Hail 0.75 in. 0 0 0.00K 0.00K
TAYLORVILLE TUSCALOOSA CO. AL 02/13/2007 16:52 CST-6 Hail 1.75 in. 0 0 0.00K 0.00K
TUSCALOOSA TUSCALOOSA CO. AL 02/13/2007 16:55 CST-6 Hail 2.75 in. 0 0 5.00K 0.00K
GREENSBORO HALE CO. AL 02/13/2007 16:56 CST-6 Hail 1.00 in. 0 0 0.00K 0.00K
NEWBERN HALE CO. AL 02/13/2007 17:00 CST-6 Hail 2.75 in. 0 0 0.00K 0.00K
WHITSITT HALE CO. AL 02/13/2007 17:01 CST-6 Tornado EF0 0 0 50.00K 0.00K
MARION PERRY CO. AL 02/13/2007 17:06 CST-6 Hail 1.00 in. 0 0 0.00K 0.00K
SCOTT STATION PERRY CO. AL 02/13/2007 17:06 CST-6 Tornado EF0 0 0 5.00K 0.00K
HAGLER TUSCALOOSA CO. AL 02/13/2007 17:10 CST-6 Tornado EF1 0 0 100.00K 0.00K
DUNCANVILLE TUSCALOOSA CO. AL 02/13/2007 17:13 CST-6 Hail 1.75 in. 0 0 0.00K 0.00K
UNIVERSITY TUSCALOOSA CO. AL 02/13/2007 17:18 CST-6 Hail 2.50 in. 0 0 5.00K 0.00K
HARMON BIBB CO. AL 02/13/2007 17:19 CST-6 Tornado EF1 0 0 5.00K 0.00K
DUNCANVILLE TUSCALOOSA CO. AL 02/13/2007 17:23 CST-6 Hail 1.00 in. 0 0 0.00K 0.00K
MARION PERRY CO. AL 02/13/2007 17:23 CST-6 Thunderstorm Wind 50 kts. EG 0 0 3.00K 0.00K
BRENT BIBB CO. AL 02/13/2007 17:30 CST-6 Hail 1.75 in. 0 0 5.00K 0.00K
SELMA DALLAS CO. AL 02/13/2007 17:44 CST-6 Hail 1.00 in. 0 0 0.00K 0.00K
OAK GROVE JEFFERSON CO. AL 02/13/2007 17:47 CST-6 Hail 1.00 in. 0 0 0.00K 0.00K
SIX MILE BIBB CO. AL 02/13/2007 17:48 CST-6 Tornado EF0 0 0 10.00K 0.00K
CONCORD JEFFERSON CO. AL 02/13/2007 17:49 CST-6 Hail 1.00 in. 0 0 0.00K 0.00K
BESSEMER JEFFERSON CO. AL 02/13/2007 17:55 CST-6 Hail 0.75 in. 0 0 0.00K 0.00K
HUEYTOWN JEFFERSON CO. AL 02/13/2007 17:55 CST-6 Hail 1.00 in. 0 0 0.00K 0.00K
HUEYTOWN JEFFERSON CO. AL 02/13/2007 17:59 CST-6 Hail 1.00 in. 0 0 0.00K 0.00K
HUEYTOWN JEFFERSON CO. AL 02/13/2007 18:00 CST-6 Hail 0.75 in. 0 0 0.00K 0.00K
MONTEVALLO SHELBY CO. AL 02/13/2007 18:00 CST-6 Hail 0.88 in. 0 0 0.00K 0.00K
SELMA DALLAS CO. AL 02/13/2007 18:00 CST-6 Hail 2.75 in. 0 0 0.00K 0.00K
HUEYTOWN JEFFERSON CO. AL 02/13/2007 18:05 CST-6 Flash Flood 0 0 0.00K 0.00K
HOOVER JEFFERSON CO. AL 02/13/2007 18:10 CST-6 Hail 1.00 in. 0 0 0.00K 0.00K
MONTEVALLO SHELBY CO. AL 02/13/2007 18:10 CST-6 Hail 0.75 in. 0 0 0.00K 0.00K
MULBERRY AUTAUGA CO. AL 02/13/2007 18:22 CST-6 Tornado EF1 0 0 10.00K 0.00K
PRATTVILLE AUTAUGA CO. AL 02/13/2007 18:40 CST-6 Hail 0.75 in. 0 0 0.00K 0.00K
INDEPENDENCE AUTAUGA CO. AL 02/13/2007 18:41 CST-6 Thunderstorm Wind 50 kts. EG 0 0 3.00K 0.00K
BOOTH AUTAUGA CO. AL 02/13/2007 18:52 CST-6 Thunderstorm Wind 50 kts. EG 0 0 3.00K 0.00K
MONTGOMERY MONTGOMERY CO. AL 02/13/2007 18:55 CST-6 Hail 1.75 in. 0 0 0.00K 0.00K
MONTGOMERY MONTGOMERY CO. AL 02/13/2007 19:00 CST-6 Thunderstorm Wind 50 kts. EG 0 0 3.00K 0.00K
PRATTVILLE AUTAUGA CO. AL 02/13/2007 19:23 CST-6 Flash Flood 0 0 0.00K 0.00K
HURTSBORO RUSSELL CO. AL 02/13/2007 20:17 CST-6 Hail 1.75 in. 0 0 0.00K 0.00K
Totals: 0 0 207.00K 0.00K